Location: Bruyères
(48.5887°N, 2.1899°E)
Time: 23:02:45
(UTC+00:00)

Daily predictions for brighter satellites

Satellite Brightness Start Highest point End
(mag) Time Altitude Azimuth Time Altitude Azimuth Time Altitude Azimuth
ATLAS 5 CENTAUR R/B 4.1 19:59:06 10° WNW 20:03:46 27° WSW 20:09:07 10° S
SPOT 1/Viking Rocket 3.8 19:59:36 10° SSE 20:04:40 58° ENE 20:09:46 10° N
COBE Rocket 4.3 19:59:40 10° S 20:04:49 74° WSW 20:09:54 10° NNW
Cosmos 1850 Rocket 4.1 19:59:58 10° SSW 20:05:17 80° ESE 20:10:39 10° NNE
Terra 3.6 20:05:01 10° E 20:08:10 18° ENE 20:11:18 10° NNE
Meteor 1-14 Rocket 4.4 20:02:17 10° N 20:08:16 71° ENE 20:14:07 10° SSE
X-37B 2.8 20:07:25 10° WSW 20:08:44 13° SSW 20:10:04 10° S
SL-4 R/B 2.9 20:04:23 10° WNW 20:08:58 58° N 20:13:17 10° E
Cosmos 2263 Rocket 4.4 20:10:48 10° N 20:13:50 14° NNE 20:16:50 10° ENE
CARTOSAT-1 4.3 20:10:09 10° SE 20:14:10 39° ENE 20:18:12 10° N
Cosmos 841 Rocket 3.8 20:13:01 10° NNW 20:18:08 66° WSW 20:23:13 10° S
Cosmos 2098 Rocket 3.6 20:15:53 10° NNW 20:19:37 45° W 20:22:43 10° SSW
Cosmos 2227 Rocket 3.0 20:14:47 10° NNW 20:20:09 41° NE 20:25:29 10° ESE
COSMOS 2487 3.1 20:20:37 10° NNW 20:23:39 44° WSW 20:26:38 10° S
Cosmos 2208 Rocket 4.5 20:18:43 10° NNW 20:24:06 53° ENE 20:29:18 10° SE
NOSS 3-4 (A) 4.3 20:24:27 10° SSE 20:28:51 23° ESE 20:33:28 10° ENE
NOSS 3-4 (C) 4.4 20:24:32 10° SSE 20:28:56 23° ESE 20:33:33 10° ENE
Cosmos 1315 Rocket 2.9 20:28:19 10° N 20:32:26 67° ENE 20:36:28 10° SSE
H-2A R/B 2.7 20:28:53 10° N 20:32:55 56° WNW 20:36:54 10° SSW
NOSS 3-2 (A) 4.3 20:28:06 10° NW 20:35:33 69° SW 20:44:02 10° SSE
Meteor 1-11 Rocket 4.2 20:30:18 10° N 20:36:09 54° ENE 20:41:40 12° SSE
Cosmos 1980 Rocket 4.0 20:34:41 10° ESE 20:36:48 12° E 20:39:00 10° ENE
Genesis I 3.4 20:39:04 10° SSW 20:42:56 50° ESE 20:46:54 10° NE
Cosmos 1328 Rocket 3.6 20:38:59 10° S 20:43:11 57° E 20:47:26 10° NNE
Cosmos 1656 3.8 20:38:24 10° S 20:43:50 55° ESE 20:49:14 10° NE
Cosmos 44 3.1 20:39:37 10° NW 20:43:59 74° SW 20:47:38 14° SSE
Cosmos 1666 4.5 20:40:37 10° NNW 20:44:00 30° W 20:47:20 10° SSW
USA 267 4.1 20:38:53 10° E 20:45:07 48° NNE 20:51:20 10° WNW
Cosmos 2233 Rocket 4.2 20:40:16 10° SSW 20:46:36 77° W 20:52:58 10° N
Cosmos 389 Rocket 3.8 20:43:48 10° NNE 20:46:47 26° ENE 20:48:53 15° ESE
Cosmos 1544 3.7 20:43:32 10° NNW 20:47:00 51° W 20:50:25 10° S
Resurs 01 Rocket 2.5 20:43:04 10° S 20:47:19 47° W 20:51:36 10° NNW
Cosmos 1340 3.9 20:46:45 16° SE 20:48:48 24° E 20:51:53 10° NE
NOSS 3-2 (C) 4.1 20:42:16 10° NW 20:49:44 86° SW 20:57:18 14° SE
SPOT 3 Rocket 3.6 20:51:46 11° SSE 20:56:45 84° WSW 21:01:56 10° NNW
Cosmos 1933 Rocket 4.2 20:52:38 10° N 20:56:54 43° ENE 20:59:56 18° SE
Cosmos 968 Rocket 3.4 20:51:53 10° S 20:56:59 66° ESE 21:02:05 10° NNE
ARGOS Delta rocket 4.5 20:51:58 10° N 20:57:24 71° WNW 21:02:50 10° SSW
Cosmos 1697 Rocket 3.3 20:53:10 10° S 20:58:15 35° ESE 21:03:21 10° NE
Cosmos 2297 Rocket 2.2 20:52:43 10° NNW 20:58:24 82° WSW 21:03:06 15° SSE
ERS-1 Rocket 3.2 20:54:28 15° SE 20:58:29 57° ENE 21:03:26 10° N
Cosmos 1666 Rocket 4.1 20:54:45 10° NNW 20:59:04 58° W 21:03:22 10° S
Cosmos 405 2.8 20:55:51 10° N 20:59:16 75° ENE 21:01:37 19° SSE
EXPRESS MD2 3.4 20:53:28 10° WNW 20:59:29 87° SSW 21:02:02 16° ESE
ATLAS 3B R/B 4.4 20:58:05 10° NW 21:04:15 29° NNE 21:10:39 10° E
Cosmos 1464 Rocket 4.1 20:59:05 11° SSE 21:04:55 56° E 21:10:57 10° NNE
Ariane Rocket 4.0 21:02:39 10° S 21:07:28 44° W 21:12:19 10° NNW
Helios 1A Rocket 2.9 21:04:52 16° SSE 21:08:00 83° WSW 21:12:02 10° NNW
USA 238 DEB 4.1 21:03:01 10° NW 21:10:15 70° SW 21:16:20 17° SSE
SPOT 5 3.1 21:05:58 16° SSE 21:10:19 80° ENE 21:15:35 10° NNW
USA 238 4.1 21:03:08 10° NW 21:10:22 70° SW 21:16:26 17° SSE
Aureole 1 Rocket 3.4 21:09:47 23° SE 21:10:38 26° ESE 21:13:19 10° NE
Cosmos 1633 Rocket 3.8 21:09:30 10° NNW 21:13:46 49° W 21:17:54 10° SSW
Cosmos 2228 Rocket 4.5 21:12:15 18° ESE 21:14:08 24° E 21:17:47 10° NE
CZ-4B R/B 3.9 21:11:41 10° NNW 21:14:16 22° WNW 21:16:49 10° WSW
Cosmos 1536 2.8 21:14:01 10° N 21:18:03 90° ESE 21:20:40 21° S
Cosmos 1470 Rocket 3.6 21:13:43 10° NNW 21:18:04 75° W 21:21:18 17° S
CENTAUR R/B 3.9 21:13:13 10° NW 21:21:03 48° WSW 21:28:29 14° S
ISS -2.8 21:20:16 10° W 21:23:33 49° N 21:26:49 10° ENE
Cosmos 2219 3.2 21:20:37 10° NNW 21:26:18 82° WSW 21:30:03 22° SSE
SJ 16-02 2.7 21:28:50 21° ESE 21:29:38 22° E 21:32:58 10° NE
Okean 1 3.9 21:28:21 27° SE 21:29:55 39° E 21:33:41 10° NNE
Nadezhda 4 Rocket 4.0 21:23:51 10° N 21:30:09 76° E 21:34:27 21° SSE
ARIANE 5 R/B 2.7 21:27:55 24° SSE 21:30:31 72° ENE 21:35:02 10° N
Cosmos 1184 Rocket 2.6 21:31:08 37° SSE 21:32:04 58° E 21:35:04 10° NNE
BREEZE-M DEB (TANK) 4.3 21:30:30 10° W 21:34:37 87° N 21:50:39 10° E
Cosmos 1515 Rocket 3.6 21:31:23 15° SSW 21:35:00 79° WNW 21:39:24 10° N
Cosmos 1486 Rocket 4.0 21:30:39 13° S 21:35:23 68° ESE 21:40:40 10° NNE
Meteor 1-19 Rocket 4.4 21:32:49 23° SSE 21:36:01 49° E 21:41:13 10° NNE
Cosmos 1072 Rocket 4.5 21:29:56 10° S 21:36:02 82° W 21:42:12 10° N
Cosmos 2082 3.8 21:32:28 10° NNW 21:38:07 70° ENE 21:41:30 25° SE
Cosmos 1809 Rocket 4.4 21:32:56 10° N 21:39:05 84° E 21:43:12 22° SSE
Spot 2 Rocket 4.0 21:37:58 17° S 21:41:40 53° W 21:46:37 10° NNW
BREEZE M DEB (TANK) 4.4 21:38:14 10° WSW 21:43:24 87° SSE 22:07:03 10° E
SAR-Lupe-1 4.2 21:40:22 10° NNE 21:43:54 52° ESE 21:44:59 37° SSE
Cosmos 1975 3.8 21:41:32 10° N 21:45:18 35° ENE 21:46:43 27° ESE
Terra 1.9 21:42:29 24° S 21:45:23 72° WSW 21:50:10 10° NNW
Cosmos 1869 Rocket 3.7 21:41:08 10° N 21:45:36 64° ENE 21:47:39 31° SSE
Cosmos 1378 4.1 21:47:28 29° ESE 21:48:00 30° E 21:51:15 10° NNE
SL-4 R/B 2.0 21:44:15 10° WNW 21:48:46 86° SSW 21:50:57 28° ESE
Cosmos 2344 3.5 21:42:15 10° SSW 21:49:36 61° ESE 21:57:07 10° NE
Cosmos 773 Rocket 4.3 21:45:49 10° NNW 21:51:00 58° ENE 21:53:43 27° SE
USA 215 3.3 21:44:56 10° ENE 21:51:22 54° SE 21:57:46 10° SW
Cosmos 1743 3.7 21:50:17 10° NNW 21:53:51 40° W 21:55:54 21° SSW
Cosmos 2026 Rocket 4.1 21:50:11 10° N 21:56:15 61° ENE 21:59:35 28° SSE
Cosmos 2263 Rocket 2.6 21:53:37 10° NNW 21:59:08 53° ENE 22:02:13 25° ESE
Cosmos 2034 Rocket 4.1 21:58:07 17° SSW 22:03:02 80° W 22:09:25 10° N
Meteor 2-4 Rocket 4.2 22:00:25 29° SSE 22:03:02 47° E 22:08:30 10° NNE
Cosmos 1503 Rocket 4.0 22:00:03 24° S 22:03:12 71° ESE 22:08:31 10° NNE
Cosmos 2227 Rocket 3.1 21:58:58 10° NW 22:04:12 39° WSW 22:07:27 21° SSW
CSL-04 DEB 4.3 22:01:27 10° NNE 22:05:24 86° WNW 22:07:12 32° SSW
Meteor 1-18 Rocket 4.3 22:07:39 29° S 22:10:34 65° E 22:16:11 10° NNE
Cosmos 2369 3.6 22:08:39 21° SSW 22:12:30 76° ESE 22:18:10 10° NNE
Cosmos 1707 Rocket 3.9 22:12:51 38° SE 22:14:03 48° E 22:18:20 10° NNE
ATLAS 2AS CENTAUR R/B 3.3 22:10:25 24° S 22:14:44 46° ESE 22:21:53 10° NE
Cosmos 921 Rocket 3.3 22:10:38 10° NNW 22:15:07 63° WSW 22:16:48 36° S
NOSS 3-4 (A) 3.5 22:13:16 10° SW 22:19:00 74° NW 22:25:18 10° NE
NOSS 3-4 (C) 3.5 22:13:20 10° SW 22:19:05 75° NW 22:25:23 10° NE
Cosmos 1980 Rocket 2.1 22:16:22 25° SSW 22:19:47 75° ESE 22:25:28 10° NNE
Cosmos 389 Rocket 4.4 22:18:22 10° NW 22:21:06 22° W 22:22:28 17° SW
Cosmos 2322 Rocket 3.8 22:23:28 17° ESE 22:24:02 18° E 22:27:40 10° ENE
USA 267 3.2 22:23:13 21° ESE 22:27:50 89° NNE 22:34:25 10° NW
ATLAS CENTAUR R/B 4.4 22:29:31 10° NNW 22:32:43 17° NNE 22:35:52 10° ENE
ALOS 2 3.5 22:33:40 29° ESE 22:35:04 38° ENE 22:39:08 10° N
Cosmos 2227 4.4 22:29:57 10° NNW 22:35:42 67° ENE 22:38:23 32° SE
ADEOS Rocket 4.0 22:33:38 20° ESE 22:36:39 33° ENE 22:41:46 10° N
Cosmos 2279 Rocket 4.1 22:36:53 35° SSE 22:39:33 64° E 22:45:41 10° NNE
Cosmos 2297 Rocket 4.4 22:38:47 10° WNW 22:41:31 14° W 22:44:16 10° SW
Cosmos 1844 Rocket 4.1 22:36:42 10° NNW 22:41:37 30° NE 22:45:41 14° ESE
Cosmos 1697 Rocket 3.7 22:36:42 10° SW 22:42:07 44° NW 22:47:33 10° NNE
RESURS DK-1 2.4 22:42:48 54° SE 22:43:06 55° ESE 22:47:10 10° NE
ERS-2 3.2 22:43:19 10° NE 22:46:17 30° E 22:46:17 30° E
Cosmos 1733 Rocket 3.0 22:42:54 10° N 22:47:22 86° W 22:48:28 51° S
Cosmos 158 Rocket 3.9 22:43:41 10° NNW 22:48:46 83° WSW 22:50:26 44° SSE
Iridium 2 3.5 22:47:01 10° N 22:50:48 88° E 22:51:11 71° SSE
Cosmos 2292 Rocket 4.2 22:48:21 10° NNW 22:51:19 27° W 22:51:38 27° W
Cosmos 1908 Rocket 4.3 22:47:44 10° N 22:51:50 40° ENE 22:52:50 34° ESE
Cosmos 2228 Rocket 4.2 22:49:42 23° SW 22:52:06 41° WNW 22:56:27 10° N
Cosmos 44 Rocket 3.4 22:47:25 10° NW 22:52:09 68° NE 22:53:49 38° ESE
Cosmos 1346 Rocket 2.7 22:53:37 58° SSW 22:54:21 83° WNW 22:58:24 10° N
Cosmos 482 Debris 4.4 22:51:40 10° WNW 22:55:15 85° SSW 22:57:33 33° ESE
Cosmos 1862 Rocket 3.5 22:54:35 53° S 22:55:35 81° E 23:00:04 10° NNE
ATLAS 3B R/B 3.1 22:48:59 10° NW 22:56:17 68° NE 23:01:38 21° SE
SL-16 R/B 2.7 22:56:41 37° SE 22:57:57 43° ESE 23:03:18 10° NE
Iridium 51 4.2 23:00:32 57° E 23:00:32 57° E 23:03:49 10° NNE
ISS -3.5 22:57:16 10° WNW 23:00:37 65° NNE 23:00:58 59° NE
Cosmos 1655 Rocket 4.2 23:01:30 10° N 23:07:45 64° ENE 23:10:20 36° SE
Cosmos 1733 3.0 23:04:01 10° N 23:07:51 80° E 23:08:06 74° SE
SJ 16-02 2.2 23:05:45 25° WSW 23:07:53 44° WNW 23:12:06 10° N
Cosmos 1726 3.0 23:07:19 10° N 23:10:46 37° ENE 23:11:02 36° E
Okean 3 4.3 23:13:02 34° ESE 23:13:23 34° E 23:17:13 10° NNE
Cosmos 2278 3.9 23:10:55 27° SW 23:14:06 70° WNW 23:19:48 10° NNE
Meteor 1-4 Rocket 2.4 23:13:21 10° NNW 23:16:39 79° NW 23:16:39 79° NW
Cosmos 990 Rocket 4.4 23:17:28 42° SE 23:18:30 48° ESE 23:23:32 10° NNE
Spot 4 4.2 23:17:33 43° SSW 23:18:45 55° W 23:23:30 10° NNW
H-2A R/B 3.5 23:20:55 10° N 23:25:00 73° WNW 23:25:42 57° SW
SL-4 R/B 3.8 23:24:21 10° W 23:26:23 20° WSW 23:26:23 20° WSW
Cosmos 1842 4.2 23:30:50 35° E 23:30:56 35° E 23:34:30 10° NNE
Cosmos 2360 Rocket 2.8 23:31:53 35° SE 23:32:59 38° ESE 23:38:11 10° NE
PSLV R/B 4.3 23:29:39 10° NNE 23:33:41 38° E 23:34:07 37° ESE
USA 215 3.6 23:28:01 10° NE 23:34:30 65° NNW 23:40:58 10° WSW
Meteor 1-23 Rocket 4.5 23:33:53 41° SSE 23:35:44 60° E 23:41:28 10° NNE
NOSS 2-1 (C) 3.5 23:36:57 47° ENE 23:36:57 47° ENE 23:39:25 10° NE
Cosmos 1356 3.6 23:37:49 61° NW 23:37:49 61° NW 23:40:52 10° N
NOSS 2-1 (D) 3.4 23:39:13 49° NE 23:39:13 49° NE 23:41:44 10° NE
Cosmos 1441 Rocket 3.8 23:41:04 43° W 23:41:30 45° WNW 23:45:07 10° N
Cosmos 1066 Rocket 4.4 23:39:19 37° SSW 23:41:38 68° WNW 23:47:23 10° N
BREEZE-M DEB (TANK) 4.4 23:38:47 10° W 23:53:28 - SE 23:39:20 15° W
Cosmos 2263 Rocket 3.3 23:38:03 10° NW 23:42:44 28° WSW 23:43:54 26° SW
Meteor 1-12 Rocket 4.5 23:44:19 10° NNW 23:50:15 64° W 23:52:14 41° SSW
SL-24 R/B - RUBIN 2 4.0 23:47:34 10° NW 23:51:41 43° WSW 23:51:41 43° WSW
Cosmos 2333 Rocket 3.2 23:51:18 29° SE 23:52:32 31° ESE 23:57:28 10° NE
Cosmos 1805 4.5 23:52:00 10° NNW 23:55:25 30° W 23:55:35 30° W
